Tracking 31027 objects as of 19-Jul-2025
HD Live streaming from Space Station
objects crossing your sky now

ATLAS 5 CENTAUR R/B

Track ATLAS 5 CENTAUR R/B now!


NORAD ID: 51851
Int'l Code: 2022-021B
Perigee: 8,124.3 km
Apogee: 35,078.1 km
Inclination: 7.4 °
Period: 776.0 minutes
Semi major axis: 27972 km
RCS: Unknown
Launch date: March 1, 2022
Source: United States (US)
Launch site: AIR FORCE EASTERN TEST RANGE (AFETR)

Note: This is a ROCKET BODY
Your satellite tracking list
STARLINK-2062
Track 1 satellite(s)




NASA's NSSDC Master Catalog

Two Line Element Set (TLE):
1 51851U 22021B   25199.43082802 -.00000067  00000-0  00000-0 0  9994
2 51851   7.4190 214.3800 4817956  51.9895 342.6092  1.85572411 22912
Source of the keplerian elements: AFSPC